owner,sensor,date,latitude,longitude,air_pressure(mBar),qcFlag 
COMPS,ioos:station:USF.COMPS:C13:1,2015-02-01T00:05:00Z,26.0630,-83.0730,1020.55,1111122 
COMPS,ioos:station:USF.COMPS:C13:1,2015-02-01T00:35:00Z,26.0630,-83.0730,1020.75,1111122 
COMPS,ioos:station:USF.COMPS:C13:1,2015-02-01T01:05:00Z,26.0630,-83.0730,1020.82,1111122 
COMPS,ioos:station:USF.COMPS:C13:1,2015-02-01T01:35:00Z,26.0630,-83.0730,1020.82,1111122 
COMPS,ioos:station:USF.COMPS:C13:1,2015-02-01T02:05:00Z,26.0630,-83.0730,1020.82,1111122 
COMPS,ioos:station:USF.COMPS:C13:1,2015-02-01T02:35:00Z,26.0630,-83.0730,1020.81,1111122 
COMPS,ioos:station:USF.COMPS:C13:1,2015-02-01T03:05:00Z,26.0630,-83.0730,1020.95,1111122 
COMPS,ioos:station:USF.COMPS:C13:1,2015-02-01T03:35:00Z,26.0630,-83.0730,1020.82,1111122 
COMPS,ioos:station:USF.COMPS:C13:1,2015-02-01T04:05:00Z,26.0630,-83.0730,1020.75,1111122 
COMPS,ioos:station:USF.COMPS:C13:1,2015-02-01T04:35:00Z,26.0630,-83.0730,1020.68,1111122 
COMPS,ioos:station:USF.COMPS:C13:1,2015-02-01T05:05:00Z,26.0630,-83.0730,1020.48,1111122 
COMPS,ioos:station:USF.COMPS:C13:1,2015-02-01T05:35:00Z,26.0630,-83.0730,1020.35,1111122 
COMPS,ioos:station:USF.COMPS:C13:1,2015-02-01T06:05:00Z,26.0630,-83.0730,1020.01,1111122 
COMPS,ioos:station:USF.COMPS:C13:1,2015-02-01T06:35:00Z,26.0630,-83.0730,1020.14,1111122 
COMPS,ioos:station:USF.COMPS:C13:1,2015-02-01T07:05:00Z,26.0630,-83.0730,1019.91,1111122 
COMPS,ioos:station:USF.COMPS:C13:1,2015-02-01T07:35:00Z,26.0630,-83.0730,1019.74,1111122 
COMPS,ioos:station:USF.COMPS:C13:1,2015-02-01T08:05:00Z,26.0630,-83.0730,1019.67,1111122 
COMPS,ioos:station:USF.COMPS:C13:1,2015-02-01T08:35:00Z,26.0630,-83.0730,1019.53,1111122 
COMPS,ioos:station:USF.COMPS:C13:1,2015-02-01T09:05:00Z,26.0630,-83.0730,1019.37,1111122 
COMPS,ioos:station:USF.COMPS:C13:1,2015-02-01T09:35:00Z,26.0630,-83.0730,1019.29,1111122 
COMPS,ioos:station:USF.COMPS:C13:1,2015-02-01T10:05:00Z,26.0630,-83.0730,1019.3,1111122 
COMPS,ioos:station:USF.COMPS:C13:1,2015-02-01T10:35:00Z,26.0630,-83.0730,1019.39,1111122 
COMPS,ioos:station:USF.COMPS:C13:1,2015-02-01T11:05:00Z,26.0630,-83.0730,1018.99,1111122 
COMPS,ioos:station:USF.COMPS:C13:1,2015-02-01T11:35:00Z,26.0630,-83.0730,1019.47,1111122 
COMPS,ioos:station:USF.COMPS:C13:1,2015-02-01T12:05:00Z,26.0630,-83.0730,1019.59,1111122 
COMPS,ioos:station:USF.COMPS:C13:1,2015-02-01T12:35:00Z,26.0630,-83.0730,1019.8,1111122 
COMPS,ioos:station:USF.COMPS:C13:1,2015-02-01T13:05:00Z,26.0630,-83.0730,1020.18,1111122 
COMPS,ioos:station:USF.COMPS:C13:1,2015-02-01T13:35:00Z,26.0630,-83.0730,1020.17,1111122 
COMPS,ioos:station:USF.COMPS:C13:1,2015-02-01T14:05:00Z,26.0630,-83.0730,1020.35,1111122 
COMPS,ioos:station:USF.COMPS:C13:1,2015-02-01T14:35:00Z,26.0630,-83.0730,1020.41,1111122 
COMPS,ioos:station:USF.COMPS:C13:1,2015-02-01T15:05:00Z,26.0630,-83.0730,1020.53,1111122 
COMPS,ioos:station:USF.COMPS:C13:1,2015-02-01T15:35:00Z,26.0630,-83.0730,1020.55,1111122 
COMPS,ioos:station:USF.COMPS:C13:1,2015-02-01T16:05:00Z,26.0630,-83.0730,1020.3,1111122 
COMPS,ioos:station:USF.COMPS:C13:1,2015-02-01T16:35:00Z,26.0630,-83.0730,1019.96,1111122 
COMPS,ioos:station:USF.COMPS:C13:1,2015-02-01T17:05:00Z,26.0630,-83.0730,1019.48,1111122 
COMPS,ioos:station:USF.COMPS:C13:1,2015-02-01T17:35:00Z,26.0630,-83.0730,1018.95,1111122 
COMPS,ioos:station:USF.COMPS:C13:1,2015-02-01T18:05:00Z,26.0630,-83.0730,1018.37,1111122 
COMPS,ioos:station:USF.COMPS:C13:1,2015-02-01T18:35:00Z,26.0630,-83.0730,1017.8,1111122 
COMPS,ioos:station:USF.COMPS:C13:1,2015-02-01T19:05:00Z,26.0630,-83.0730,1017.23,1111122 
COMPS,ioos:station:USF.COMPS:C13:1,2015-02-01T19:35:00Z,26.0630,-83.0730,1016.78,1111122 
COMPS,ioos:station:USF.COMPS:C13:1,2015-02-01T20:05:00Z,26.0630,-83.0730,1016.19,1111122 
COMPS,ioos:station:USF.COMPS:C13:1,2015-02-01T20:35:00Z,26.0630,-83.0730,1015.71,1111122 
COMPS,ioos:station:USF.COMPS:C13:1,2015-02-01T21:05:00Z,26.0630,-83.0730,1015.53,1111122 
COMPS,ioos:station:USF.COMPS:C13:1,2015-02-01T21:35:00Z,26.0630,-83.0730,1015.67,1111122 
COMPS,ioos:station:USF.COMPS:C13:1,2015-02-01T22:05:00Z,26.0630,-83.0730,1015.61,1111122 
COMPS,ioos:station:USF.COMPS:C13:1,2015-02-01T22:35:00Z,26.0630,-83.0730,1015.3,1111122 
COMPS,ioos:station:USF.COMPS:C13:1,2015-02-01T23:05:00Z,26.0630,-83.0730,1015.57,1111122 
COMPS,ioos:station:USF.COMPS:C13:1,2015-02-01T23:35:00Z,26.0630,-83.0730,1015.7,1111122 
COMPS,ioos:station:USF.COMPS:C13:1,2015-02-02T00:05:00Z,26.0630,-83.0730,1015.61,1111122 
COMPS,ioos:station:USF.COMPS:C13:1,2015-02-02T00:35:00Z,26.0630,-83.0730,1015.52,1111122 
COMPS,ioos:station:USF.COMPS:C13:1,2015-02-02T01:05:00Z,26.0630,-83.0730,1015.81,1111122 
COMPS,ioos:station:USF.COMPS:C13:1,2015-02-02T01:35:00Z,26.0630,-83.0730,1015.94,1111122 
COMPS,ioos:station:USF.COMPS:C13:1,2015-02-02T02:05:00Z,26.0630,-83.0730,1015.94,1111122 
COMPS,ioos:station:USF.COMPS:C13:1,2015-02-02T02:35:00Z,26.0630,-83.0730,1015.86,1111122 
COMPS,ioos:station:USF.COMPS:C13:1,2015-02-02T03:05:00Z,26.0630,-83.0730,1015.73,1111122 
COMPS,ioos:station:USF.COMPS:C13:1,2015-02-02T03:35:00Z,26.0630,-83.0730,1015.79,1111122 
COMPS,ioos:station:USF.COMPS:C13:1,2015-02-02T04:05:00Z,26.0630,-83.0730,1015.9,1111122 
COMPS,ioos:station:USF.COMPS:C13:1,2015-02-02T04:35:00Z,26.0630,-83.0730,1015.71,1111122 
COMPS,ioos:station:USF.COMPS:C13:1,2015-02-02T05:05:00Z,26.0630,-83.0730,1015.45,1111122 
COMPS,ioos:station:USF.COMPS:C13:1,2015-02-02T05:35:00Z,26.0630,-83.0730,1015.17,1111122 
COMPS,ioos:station:USF.COMPS:C13:1,2015-02-02T06:05:00Z,26.0630,-83.0730,1015.31,1111122 
COMPS,ioos:station:USF.COMPS:C13:1,2015-02-02T06:35:00Z,26.0630,-83.0730,1014.88,1111122 
COMPS,ioos:station:USF.COMPS:C13:1,2015-02-02T07:05:00Z,26.0630,-83.0730,1014.57,1111122 
COMPS,ioos:station:USF.COMPS:C13:1,2015-02-02T07:35:00Z,26.0630,-83.0730,1014.1,1111122 
COMPS,ioos:station:USF.COMPS:C13:1,2015-02-02T08:05:00Z,26.0630,-83.0730,1013.91,1111122 
COMPS,ioos:station:USF.COMPS:C13:1,2015-02-02T08:35:00Z,26.0630,-83.0730,1013.71,1111122 
COMPS,ioos:station:USF.COMPS:C13:1,2015-02-02T09:05:00Z,26.0630,-83.0730,1013.61,1111122 
COMPS,ioos:station:USF.COMPS:C13:1,2015-02-02T09:35:00Z,26.0630,-83.0730,1013.63,1111122 
COMPS,ioos:station:USF.COMPS:C13:1,2015-02-02T10:05:00Z,26.0630,-83.0730,1013.47,1111122 
COMPS,ioos:station:USF.COMPS:C13:1,2015-02-02T10:35:00Z,26.0630,-83.0730,1013.48,1111122 
COMPS,ioos:station:USF.COMPS:C13:1,2015-02-02T11:05:00Z,26.0630,-83.0730,1013.57,1111122 
COMPS,ioos:station:USF.COMPS:C13:1,2015-02-02T11:35:00Z,26.0630,-83.0730,1013.71,1111122 
COMPS,ioos:station:USF.COMPS:C13:1,2015-02-02T12:05:00Z,26.0630,-83.0730,1013.93,1111122 
COMPS,ioos:station:USF.COMPS:C13:1,2015-02-02T12:35:00Z,26.0630,-83.0730,1014.27,1111122 
COMPS,ioos:station:USF.COMPS:C13:1,2015-02-02T13:05:00Z,26.0630,-83.0730,1014.5,1111122 
COMPS,ioos:station:USF.COMPS:C13:1,2015-02-02T13:35:00Z,26.0630,-83.0730,1014.67,1111122 
COMPS,ioos:station:USF.COMPS:C13:1,2015-02-02T14:05:00Z,26.0630,-83.0730,1014.63,1111122 
COMPS,ioos:station:USF.COMPS:C13:1,2015-02-02T14:35:00Z,26.0630,-83.0730,1015.18,1111122 
COMPS,ioos:station:USF.COMPS:C13:1,2015-02-02T15:05:00Z,26.0630,-83.0730,1015.3,1111122 
COMPS,ioos:station:USF.COMPS:C13:1,2015-02-02T15:35:00Z,26.0630,-83.0730,1015.51,1111122 
COMPS,ioos:station:USF.COMPS:C13:1,2015-02-02T16:05:00Z,26.0630,-83.0730,1016.37,1111122 
COMPS,ioos:station:USF.COMPS:C13:1,2015-02-02T16:35:00Z,26.0630,-83.0730,1016.15,1111122 
COMPS,ioos:station:USF.COMPS:C13:1,2015-02-02T17:05:00Z,26.0630,-83.0730,1015.72,1111122 
COMPS,ioos:station:USF.COMPS:C13:1,2015-02-02T17:35:00Z,26.0630,-83.0730,1015.9,1111122 
COMPS,ioos:station:USF.COMPS:C13:1,2015-02-02T18:05:00Z,26.0630,-83.0730,1015.02,1111122 
COMPS,ioos:station:USF.COMPS:C13:1,2015-02-02T18:35:00Z,26.0630,-83.0730,1014.38,1111122 
COMPS,ioos:station:USF.COMPS:C13:1,2015-02-02T19:05:00Z,26.0630,-83.0730,1013.9,1111122 
COMPS,ioos:station:USF.COMPS:C13:1,2015-02-02T19:35:00Z,26.0630,-83.0730,1013.6,1111122 
COMPS,ioos:station:USF.COMPS:C13:1,2015-02-02T20:05:00Z,26.0630,-83.0730,1013.59,1111122 
COMPS,ioos:station:USF.COMPS:C13:1,2015-02-02T20:35:00Z,26.0630,-83.0730,1013.91,1111122 
COMPS,ioos:station:USF.COMPS:C13:1,2015-02-02T21:05:00Z,26.0630,-83.0730,1014.22,1111122 
COMPS,ioos:station:USF.COMPS:C13:1,2015-02-02T21:35:00Z,26.0630,-83.0730,1014.84,1111122 
COMPS,ioos:station:USF.COMPS:C13:1,2015-02-02T22:05:00Z,26.0630,-83.0730,1015.17,1111122 
COMPS,ioos:station:USF.COMPS:C13:1,2015-02-02T22:35:00Z,26.0630,-83.0730,1015.57,1111122 
COMPS,ioos:station:USF.COMPS:C13:1,2015-02-02T23:05:00Z,26.0630,-83.0730,1015.91,1111122 
COMPS,ioos:station:USF.COMPS:C13:1,2015-02-02T23:35:00Z,26.0630,-83.0730,1016.02,1111122 
COMPS,ioos:station:USF.COMPS:C13:1,2015-02-03T00:05:00Z,26.0630,-83.0730,1016.28,1111122 
COMPS,ioos:station:USF.COMPS:C13:1,2015-02-03T00:35:00Z,26.0630,-83.0730,1016.62,1111122 
COMPS,ioos:station:USF.COMPS:C13:1,2015-02-03T01:05:00Z,26.0630,-83.0730,1016.85,1111122 
COMPS,ioos:station:USF.COMPS:C13:1,2015-02-03T01:35:00Z,26.0630,-83.0730,1017.3,1111122 
COMPS,ioos:station:USF.COMPS:C13:1,2015-02-03T02:05:00Z,26.0630,-83.0730,1017.45,1111122 
COMPS,ioos:station:USF.COMPS:C13:1,2015-02-03T02:35:00Z,26.0630,-83.0730,1017.72,1111122 
COMPS,ioos:station:USF.COMPS:C13:1,2015-02-03T03:05:00Z,26.0630,-83.0730,1017.98,1111122 
COMPS,ioos:station:USF.COMPS:C13:1,2015-02-03T03:35:00Z,26.0630,-83.0730,1017.99,1111122 
COMPS,ioos:station:USF.COMPS:C13:1,2015-02-03T04:05:00Z,26.0630,-83.0730,1018.11,1111122 
COMPS,ioos:station:USF.COMPS:C13:1,2015-02-03T04:35:00Z,26.0630,-83.0730,1018.11,1111122 
COMPS,ioos:station:USF.COMPS:C13:1,2015-02-03T05:05:00Z,26.0630,-83.0730,1018.08,1111122 
COMPS,ioos:station:USF.COMPS:C13:1,2015-02-03T05:35:00Z,26.0630,-83.0730,1017.68,1111122 
COMPS,ioos:station:USF.COMPS:C13:1,2015-02-03T06:05:00Z,26.0630,-83.0730,1017.89,1111122 
COMPS,ioos:station:USF.COMPS:C13:1,2015-02-03T06:35:00Z,26.0630,-83.0730,1017.71,1111122 
COMPS,ioos:station:USF.COMPS:C13:1,2015-02-03T07:05:00Z,26.0630,-83.0730,1017.75,1111122 
COMPS,ioos:station:USF.COMPS:C13:1,2015-02-03T07:35:00Z,26.0630,-83.0730,1017.54,1111122 
COMPS,ioos:station:USF.COMPS:C13:1,2015-02-03T08:05:00Z,26.0630,-83.0730,1017.48,1111122 
COMPS,ioos:station:USF.COMPS:C13:1,2015-02-03T08:35:00Z,26.0630,-83.0730,1017.26,1111122 
COMPS,ioos:station:USF.COMPS:C13:1,2015-02-03T09:05:00Z,26.0630,-83.0730,1017.15,1111122 
COMPS,ioos:station:USF.COMPS:C13:1,2015-02-03T09:35:00Z,26.0630,-83.0730,1017.61,1111122 
COMPS,ioos:station:USF.COMPS:C13:1,2015-02-03T10:05:00Z,26.0630,-83.0730,1017.84,1111122 
COMPS,ioos:station:USF.COMPS:C13:1,2015-02-03T10:35:00Z,26.0630,-83.0730,1018.37,1111122 
COMPS,ioos:station:USF.COMPS:C13:1,2015-02-03T11:05:00Z,26.0630,-83.0730,1018.85,1111122 
COMPS,ioos:station:USF.COMPS:C13:1,2015-02-03T11:35:00Z,26.0630,-83.0730,1019.3,1111122 
COMPS,ioos:station:USF.COMPS:C13:1,2015-02-03T12:05:00Z,26.0630,-83.0730,1019.84,1111122 
COMPS,ioos:station:USF.COMPS:C13:1,2015-02-03T12:35:00Z,26.0630,-83.0730,1020.24,1111122 
COMPS,ioos:station:USF.COMPS:C13:1,2015-02-03T13:05:00Z,26.0630,-83.0730,1020.54,1111122 
COMPS,ioos:station:USF.COMPS:C13:1,2015-02-03T13:35:00Z,26.0630,-83.0730,1020.82,1111122 
COMPS,ioos:station:USF.COMPS:C13:1,2015-02-03T14:05:00Z,26.0630,-83.0730,1021.37,1111122 
COMPS,ioos:station:USF.COMPS:C13:1,2015-02-03T14:35:00Z,26.0630,-83.0730,1021.55,1111122 
COMPS,ioos:station:USF.COMPS:C13:1,2015-02-03T15:05:00Z,26.0630,-83.0730,1021.87,1111122 
COMPS,ioos:station:USF.COMPS:C13:1,2015-02-03T15:35:00Z,26.0630,-83.0730,1022.15,1111122 
COMPS,ioos:station:USF.COMPS:C13:1,2015-02-03T16:05:00Z,26.0630,-83.0730,1022.27,1111122 
COMPS,ioos:station:USF.COMPS:C13:1,2015-02-03T16:35:00Z,26.0630,-83.0730,1022.19,1111122 
COMPS,ioos:station:USF.COMPS:C13:1,2015-02-03T17:05:00Z,26.0630,-83.0730,1021.96,1111122 
COMPS,ioos:station:USF.COMPS:C13:1,2015-02-03T17:35:00Z,26.0630,-83.0730,1021.32,1111122 
COMPS,ioos:station:USF.COMPS:C13:1,2015-02-03T18:05:00Z,26.0630,-83.0730,1020.69,1111122 
COMPS,ioos:station:USF.COMPS:C13:1,2015-02-03T18:35:00Z,26.0630,-83.0730,1020.55,1111122 
COMPS,ioos:station:USF.COMPS:C13:1,2015-02-03T19:05:00Z,26.0630,-83.0730,1019.84,1111122 
COMPS,ioos:station:USF.COMPS:C13:1,2015-02-03T19:35:00Z,26.0630,-83.0730,1019.73,1111122 
COMPS,ioos:station:USF.COMPS:C13:1,2015-02-03T20:05:00Z,26.0630,-83.0730,1019.42,1111122 
COMPS,ioos:station:USF.COMPS:C13:1,2015-02-03T20:35:00Z,26.0630,-83.0730,1019.21,1111122 
COMPS,ioos:station:USF.COMPS:C13:1,2015-02-03T21:05:00Z,26.0630,-83.0730,1019.17,1111122 
COMPS,ioos:station:USF.COMPS:C13:1,2015-02-03T21:35:00Z,26.0630,-83.0730,1018.84,1111122 
COMPS,ioos:station:USF.COMPS:C13:1,2015-02-03T22:05:00Z,26.0630,-83.0730,1018.9,1111122 
COMPS,ioos:station:USF.COMPS:C13:1,2015-02-03T22:35:00Z,26.0630,-83.0730,1018.92,1111122 
COMPS,ioos:station:USF.COMPS:C13:1,2015-02-03T23:05:00Z,26.0630,-83.0730,1019.28,1111122 
COMPS,ioos:station:USF.COMPS:C13:1,2015-02-03T23:35:00Z,26.0630,-83.0730,1019.44,1111122 
COMPS,ioos:station:USF.COMPS:C13:1,2015-02-04T00:05:00Z,26.0630,-83.0730,1019.61,1111122 
COMPS,ioos:station:USF.COMPS:C13:1,2015-02-04T00:35:00Z,26.0630,-83.0730,1019.8,1111122 
COMPS,ioos:station:USF.COMPS:C13:1,2015-02-04T01:05:00Z,26.0630,-83.0730,1019.83,1111122 
COMPS,ioos:station:USF.COMPS:C13:1,2015-02-04T01:35:00Z,26.0630,-83.0730,1019.87,1111122 
COMPS,ioos:station:USF.COMPS:C13:1,2015-02-04T02:05:00Z,26.0630,-83.0730,1019.94,1111122 
COMPS,ioos:station:USF.COMPS:C13:1,2015-02-04T02:35:00Z,26.0630,-83.0730,1020.35,1111122 
COMPS,ioos:station:USF.COMPS:C13:1,2015-02-04T03:05:00Z,26.0630,-83.0730,1020.39,1111122 
COMPS,ioos:station:USF.COMPS:C13:1,2015-02-04T03:35:00Z,26.0630,-83.0730,1020.05,1111122 
COMPS,ioos:station:USF.COMPS:C13:1,2015-02-04T04:05:00Z,26.0630,-83.0730,1019.85,1111122 
COMPS,ioos:station:USF.COMPS:C13:1,2015-02-04T04:35:00Z,26.0630,-83.0730,1019.88,1111122 
COMPS,ioos:station:USF.COMPS:C13:1,2015-02-04T05:05:00Z,26.0630,-83.0730,1019.85,1111122 
COMPS,ioos:station:USF.COMPS:C13:1,2015-02-04T05:35:00Z,26.0630,-83.0730,1019.45,1111122 
COMPS,ioos:station:USF.COMPS:C13:1,2015-02-04T06:05:00Z,26.0630,-83.0730,1019.21,1111122 
COMPS,ioos:station:USF.COMPS:C13:1,2015-02-04T06:35:00Z,26.0630,-83.0730,1019.36,1111122 
COMPS,ioos:station:USF.COMPS:C13:1,2015-02-04T07:05:00Z,26.0630,-83.0730,1019.0,1111122 
COMPS,ioos:station:USF.COMPS:C13:1,2015-02-04T07:35:00Z,26.0630,-83.0730,1018.72,1111122 
COMPS,ioos:station:USF.COMPS:C13:1,2015-02-04T08:05:00Z,26.0630,-83.0730,1018.21,1111122 
COMPS,ioos:station:USF.COMPS:C13:1,2015-02-04T08:35:00Z,26.0630,-83.0730,1018.11,1111122 
COMPS,ioos:station:USF.COMPS:C13:1,2015-02-04T09:05:00Z,26.0630,-83.0730,1017.97,1111122 
COMPS,ioos:station:USF.COMPS:C13:1,2015-02-04T09:35:00Z,26.0630,-83.0730,1017.67,1111122 
COMPS,ioos:station:USF.COMPS:C13:1,2015-02-04T10:05:00Z,26.0630,-83.0730,1017.59,1111122 
COMPS,ioos:station:USF.COMPS:C13:1,2015-02-04T10:35:00Z,26.0630,-83.0730,1017.51,1111122 
COMPS,ioos:station:USF.COMPS:C13:1,2015-02-04T11:05:00Z,26.0630,-83.0730,1017.55,1111122 
COMPS,ioos:station:USF.COMPS:C13:1,2015-02-04T11:35:00Z,26.0630,-83.0730,1017.64,1111122 
COMPS,ioos:station:USF.COMPS:C13:1,2015-02-04T12:05:00Z,26.0630,-83.0730,1018.05,1111122 
COMPS,ioos:station:USF.COMPS:C13:1,2015-02-04T12:35:00Z,26.0630,-83.0730,1018.1,1111122 
COMPS,ioos:station:USF.COMPS:C13:1,2015-02-04T13:05:00Z,26.0630,-83.0730,1018.14,1111122 
COMPS,ioos:station:USF.COMPS:C13:1,2015-02-04T13:35:00Z,26.0630,-83.0730,1018.45,1111122 
COMPS,ioos:station:USF.COMPS:C13:1,2015-02-04T14:05:00Z,26.0630,-83.0730,1018.41,1111122 
COMPS,ioos:station:USF.COMPS:C13:1,2015-02-04T14:35:00Z,26.0630,-83.0730,1018.67,1111122 
COMPS,ioos:station:USF.COMPS:C13:1,2015-02-04T15:05:00Z,26.0630,-83.0730,1018.72,1111122 
COMPS,ioos:station:USF.COMPS:C13:1,2015-02-04T15:35:00Z,26.0630,-83.0730,1018.51,1111122 
COMPS,ioos:station:USF.COMPS:C13:1,2015-02-04T16:05:00Z,26.0630,-83.0730,1018.21,1111122 
COMPS,ioos:station:USF.COMPS:C13:1,2015-02-04T16:35:00Z,26.0630,-83.0730,1017.97,1111122 
COMPS,ioos:station:USF.COMPS:C13:1,2015-02-04T17:05:00Z,26.0630,-83.0730,1017.67,1111122 
COMPS,ioos:station:USF.COMPS:C13:1,2015-02-04T17:35:00Z,26.0630,-83.0730,1016.93,1111122 
COMPS,ioos:station:USF.COMPS:C13:1,2015-02-04T18:05:00Z,26.0630,-83.0730,1016.25,1111122 
COMPS,ioos:station:USF.COMPS:C13:1,2015-02-04T18:35:00Z,26.0630,-83.0730,1015.38,1111122 
COMPS,ioos:station:USF.COMPS:C13:1,2015-02-04T19:05:00Z,26.0630,-83.0730,1014.9,1111122 
COMPS,ioos:station:USF.COMPS:C13:1,2015-02-04T19:35:00Z,26.0630,-83.0730,1014.64,1111122 
COMPS,ioos:station:USF.COMPS:C13:1,2015-02-04T20:05:00Z,26.0630,-83.0730,1014.33,1111122 
COMPS,ioos:station:USF.COMPS:C13:1,2015-02-04T20:35:00Z,26.0630,-83.0730,1013.97,1111122 
COMPS,ioos:station:USF.COMPS:C13:1,2015-02-04T21:05:00Z,26.0630,-83.0730,1013.63,1111122 
COMPS,ioos:station:USF.COMPS:C13:1,2015-02-04T21:35:00Z,26.0630,-83.0730,1013.32,1111122 
COMPS,ioos:station:USF.COMPS:C13:1,2015-02-04T22:05:00Z,26.0630,-83.0730,1013.57,1111122 
COMPS,ioos:station:USF.COMPS:C13:1,2015-02-04T22:35:00Z,26.0630,-83.0730,1013.38,1111122 
COMPS,ioos:station:USF.COMPS:C13:1,2015-02-04T23:05:00Z,26.0630,-83.0730,1013.59,1111122 
COMPS,ioos:station:USF.COMPS:C13:1,2015-02-04T23:35:00Z,26.0630,-83.0730,1013.85,1111122 
COMPS,ioos:station:USF.COMPS:C13:1,2015-02-05T00:05:00Z,26.0630,-83.0730,1013.95,1111122 
COMPS,ioos:station:USF.COMPS:C13:1,2015-02-05T00:35:00Z,26.0630,-83.0730,1013.99,1111122 
COMPS,ioos:station:USF.COMPS:C13:1,2015-02-05T01:05:00Z,26.0630,-83.0730,1013.72,1111122 
COMPS,ioos:station:USF.COMPS:C13:1,2015-02-05T01:35:00Z,26.0630,-83.0730,1013.46,1111122 
COMPS,ioos:station:USF.COMPS:C13:1,2015-02-05T02:05:00Z,26.0630,-83.0730,1013.26,1111122 
COMPS,ioos:station:USF.COMPS:C13:1,2015-02-05T02:35:00Z,26.0630,-83.0730,1013.3,1111122 
COMPS,ioos:station:USF.COMPS:C13:1,2015-02-05T03:05:00Z,26.0630,-83.0730,1012.47,1111122 
COMPS,ioos:station:USF.COMPS:C13:1,2015-02-05T03:35:00Z,26.0630,-83.0730,1012.63,1111122 
COMPS,ioos:station:USF.COMPS:C13:1,2015-02-05T04:05:00Z,26.0630,-83.0730,1012.14,1111122 
COMPS,ioos:station:USF.COMPS:C13:1,2015-02-05T04:35:00Z,26.0630,-83.0730,1011.72,1111122 
COMPS,ioos:station:USF.COMPS:C13:1,2015-02-05T05:05:00Z,26.0630,-83.0730,1011.79,1111122 
COMPS,ioos:station:USF.COMPS:C13:1,2015-02-05T05:35:00Z,26.0630,-83.0730,1012.15,1111122 
COMPS,ioos:station:USF.COMPS:C13:1,2015-02-05T06:05:00Z,26.0630,-83.0730,1012.13,1111122 
COMPS,ioos:station:USF.COMPS:C13:1,2015-02-05T06:35:00Z,26.0630,-83.0730,1011.87,1111122 
COMPS,ioos:station:USF.COMPS:C13:1,2015-02-05T07:05:00Z,26.0630,-83.0730,1011.33,1111122 
COMPS,ioos:station:USF.COMPS:C13:1,2015-02-05T07:35:00Z,26.0630,-83.0730,1011.35,1111122 
COMPS,ioos:station:USF.COMPS:C13:1,2015-02-05T11:05:00Z,26.0630,-83.0730,1010.7,1111122 
COMPS,ioos:station:USF.COMPS:C13:1,2015-02-05T11:35:00Z,26.0630,-83.0730,1010.94,1111122 
COMPS,ioos:station:USF.COMPS:C13:1,2015-02-05T12:05:00Z,26.0630,-83.0730,1010.52,1111122 
COMPS,ioos:station:USF.COMPS:C13:1,2015-02-05T12:35:00Z,26.0630,-83.0730,1010.99,1111122 
COMPS,ioos:station:USF.COMPS:C13:1,2015-02-05T13:05:00Z,26.0630,-83.0730,1011.64,1111122 
COMPS,ioos:station:USF.COMPS:C13:1,2015-02-05T13:35:00Z,26.0630,-83.0730,1011.57,1111122 
COMPS,ioos:station:USF.COMPS:C13:1,2015-02-05T14:05:00Z,26.0630,-83.0730,1011.89,1111122 
COMPS,ioos:station:USF.COMPS:C13:1,2015-02-05T14:35:00Z,26.0630,-83.0730,1012.75,1111122 
COMPS,ioos:station:USF.COMPS:C13:1,2015-02-05T15:05:00Z,26.0630,-83.0730,1013.01,1111122 
COMPS,ioos:station:USF.COMPS:C13:1,2015-02-05T15:35:00Z,26.0630,-83.0730,1012.87,1111122 
COMPS,ioos:station:USF.COMPS:C13:1,2015-02-05T16:05:00Z,26.0630,-83.0730,1012.77,1111122 
COMPS,ioos:station:USF.COMPS:C13:1,2015-02-05T16:35:00Z,26.0630,-83.0730,1012.76,1111122 
COMPS,ioos:station:USF.COMPS:C13:1,2015-02-05T17:05:00Z,26.0630,-83.0730,1012.61,1111122 
COMPS,ioos:station:USF.COMPS:C13:1,2015-02-05T17:35:00Z,26.0630,-83.0730,1012.02,1111122 
COMPS,ioos:station:USF.COMPS:C13:1,2015-02-05T18:05:00Z,26.0630,-83.0730,1012.19,1111122 
COMPS,ioos:station:USF.COMPS:C13:1,2015-02-05T18:35:00Z,26.0630,-83.0730,1011.94,1111122 
COMPS,ioos:station:USF.COMPS:C13:1,2015-02-05T19:05:00Z,26.0630,-83.0730,1012.15,1111122 
COMPS,ioos:station:USF.COMPS:C13:1,2015-02-05T19:35:00Z,26.0630,-83.0730,1012.2,1111122 
COMPS,ioos:station:USF.COMPS:C13:1,2015-02-05T20:05:00Z,26.0630,-83.0730,1012.4,1111122 
COMPS,ioos:station:USF.COMPS:C13:1,2015-02-05T20:35:00Z,26.0630,-83.0730,1012.7,1111122 
COMPS,ioos:station:USF.COMPS:C13:1,2015-02-05T21:05:00Z,26.0630,-83.0730,1012.83,1111122 
COMPS,ioos:station:USF.COMPS:C13:1,2015-02-05T21:35:00Z,26.0630,-83.0730,1012.99,1111122 
COMPS,ioos:station:USF.COMPS:C13:1,2015-02-05T22:05:00Z,26.0630,-83.0730,1013.08,1111122 
COMPS,ioos:station:USF.COMPS:C13:1,2015-02-05T22:35:00Z,26.0630,-83.0730,1013.42,1111122 
COMPS,ioos:station:USF.COMPS:C13:1,2015-02-05T23:05:00Z,26.0630,-83.0730,1013.86,1111122 
COMPS,ioos:station:USF.COMPS:C13:1,2015-02-05T23:35:00Z,26.0630,-83.0730,1014.32,1111122 
COMPS,ioos:station:USF.COMPS:C13:1,2015-02-06T00:05:00Z,26.0630,-83.0730,1014.77,1111122 
COMPS,ioos:station:USF.COMPS:C13:1,2015-02-06T00:35:00Z,26.0630,-83.0730,1015.21,1111122 
COMPS,ioos:station:USF.COMPS:C13:1,2015-02-06T01:05:00Z,26.0630,-83.0730,1015.59,1111122 
COMPS,ioos:station:USF.COMPS:C13:1,2015-02-06T01:35:00Z,26.0630,-83.0730,1015.85,1111122 
COMPS,ioos:station:USF.COMPS:C13:1,2015-02-06T02:05:00Z,26.0630,-83.0730,1016.07,1111122 
COMPS,ioos:station:USF.COMPS:C13:1,2015-02-06T02:35:00Z,26.0630,-83.0730,1016.54,1111122 
COMPS,ioos:station:USF.COMPS:C13:1,2015-02-06T03:05:00Z,26.0630,-83.0730,1017.04,1111122 
COMPS,ioos:station:USF.COMPS:C13:1,2015-02-06T03:35:00Z,26.0630,-83.0730,1017.39,1111122 
COMPS,ioos:station:USF.COMPS:C13:1,2015-02-06T04:05:00Z,26.0630,-83.0730,1017.68,1111122 
COMPS,ioos:station:USF.COMPS:C13:1,2015-02-06T04:35:00Z,26.0630,-83.0730,1017.69,1111122 
COMPS,ioos:station:USF.COMPS:C13:1,2015-02-06T05:05:00Z,26.0630,-83.0730,1017.94,1111122 
COMPS,ioos:station:USF.COMPS:C13:1,2015-02-06T05:35:00Z,26.0630,-83.0730,1017.83,1111122 
COMPS,ioos:station:USF.COMPS:C13:1,2015-02-06T06:05:00Z,26.0630,-83.0730,1018.03,1111122 
COMPS,ioos:station:USF.COMPS:C13:1,2015-02-06T06:35:00Z,26.0630,-83.0730,1018.02,1111122 
COMPS,ioos:station:USF.COMPS:C13:1,2015-02-06T07:05:00Z,26.0630,-83.0730,1018.07,1111122 
COMPS,ioos:station:USF.COMPS:C13:1,2015-02-06T07:35:00Z,26.0630,-83.0730,1018.09,1111122 
COMPS,ioos:station:USF.COMPS:C13:1,2015-02-06T08:05:00Z,26.0630,-83.0730,1018.03,1111122 
COMPS,ioos:station:USF.COMPS:C13:1,2015-02-06T08:35:00Z,26.0630,-83.0730,1018.21,1111122 
COMPS,ioos:station:USF.COMPS:C13:1,2015-02-06T09:05:00Z,26.0630,-83.0730,1018.2,1111122 
COMPS,ioos:station:USF.COMPS:C13:1,2015-02-06T09:35:00Z,26.0630,-83.0730,1018.5,1111122 
COMPS,ioos:station:USF.COMPS:C13:1,2015-02-06T10:05:00Z,26.0630,-83.0730,1018.7,1111122 
COMPS,ioos:station:USF.COMPS:C13:1,2015-02-06T10:35:00Z,26.0630,-83.0730,1019.17,1111122 
COMPS,ioos:station:USF.COMPS:C13:1,2015-02-06T11:05:00Z,26.0630,-83.0730,1019.45,1111122 
COMPS,ioos:station:USF.COMPS:C13:1,2015-02-06T11:35:00Z,26.0630,-83.0730,1019.92,1111122 
COMPS,ioos:station:USF.COMPS:C13:1,2015-02-06T12:05:00Z,26.0630,-83.0730,1020.3,1111122 
COMPS,ioos:station:USF.COMPS:C13:1,2015-02-06T12:35:00Z,26.0630,-83.0730,1020.6,1111122 
COMPS,ioos:station:USF.COMPS:C13:1,2015-02-06T13:05:00Z,26.0630,-83.0730,1020.89,1111122 
COMPS,ioos:station:USF.COMPS:C13:1,2015-02-06T13:35:00Z,26.0630,-83.0730,1021.13,1111122 
COMPS,ioos:station:USF.COMPS:C13:1,2015-02-06T14:05:00Z,26.0630,-83.0730,1021.21,1111122 
COMPS,ioos:station:USF.COMPS:C13:1,2015-02-06T14:35:00Z,26.0630,-83.0730,1021.69,1111122 
COMPS,ioos:station:USF.COMPS:C13:1,2015-02-06T15:05:00Z,26.0630,-83.0730,1022.05,1111122 
COMPS,ioos:station:USF.COMPS:C13:1,2015-02-06T15:35:00Z,26.0630,-83.0730,1021.98,1111122 